[[{"header":{"parameterUnit":"m.s-1","parameterCategory":1,"la1":30.2991,"la2":30.254,"lo1":-89.0895,"lo2":-89.0444,"dy":0.0017,"dx":0.0017,"nx":28,"ny":28,"refTime":"2025-08-08T09:00:00:Z","depth":0,"parameterNumber":2,"parameterNumberName":"U-component_of_WINDS"},"data":[0,0,0,0,0,0,0,0,0,0,0,0,0,0,0,0,0,0,0,0,0,0,0,0,0,0,0,0,0,0,0,0,0,0,0,0,0,0,0,0,0,0,0,0,0,0,0,0,0,0,0,0,0,0,0,0,0,0,-4.7422,-4.7422,0,-4.7411,-4.7411,-4.7411,-4.7276,-4.7272,-4.7269,-4.7266,-4.7255,-4.7258,-4.7261,0,0,0,0,0,0,0,0,0,0,0,0,0,-4.7329,-4.7332,-4.7422,-4.7422,-4.7422,-4.7411,-4.7411,-4.741,-4.7276,-4.7272,-4.7268,-4.7264,-4.7254,-4.7257,-4.7261,0,0,0,0,0,0,0,0,0,0,0,0,0,-4.7349,-4.7332,-4.7422,-4.7354,-4.7347,-4.7411,-4.7411,-4.741,-4.7277,-4.7272,-4.7267,-4.7262,-4.7253,-4.7257,-4.7261,-4.739,0,0,-4.7274,-4.7276,0,0,0,0,0,0,0,0,-4.7348,-4.7353,-4.7364,-4.7358,-4.7352,-4.7339,-4.7374,-4.7404,-4.7279,-4.7304,-4.7266,-4.726,-4.7287,-4.7288,-4.7297,-4.7389,-4.7389,-4.7275,-4.7277,-4.7279,-4.728,0,0,0,0,0,0,0,-4.7347,-4.7352,-4.7418,-4.7364,-4.7357,-4.7324,-4.7321,-4.7379,-4.7324,-4.7301,-4.7292,-4.7292,-4.7283,-4.7294,-4.7296,-4.7389,-4.7275,-4.7279,-4.7281,-4.7283,-4.7586,-4.7592,0,0,0,0,0,0,-4.7355,-4.7352,-4.7418,-4.7417,-4.7337,-4.733,-4.7327,-4.7349,-4.7323,-4.7315,-4.7296,-4.7286,-4.7289,-4.7291,-4.7295,-4.7444,-4.7279,-4.7283,-4.7286,-4.7581,-4.7588,-4.7594,0,0,0,0,0,0,-4.7353,-4.7362,-4.7418,-4.7382,-4.7387,-4.7337,-4.7363,-4.7351,-4.7361,-4.7319,-4.7309,-4.7317,-4.7285,-4.7289,-4.7367,-4.7442,-4.7285,-4.7289,-4.7575,-4.7583,-4.7591,-4.7743,0,0,0,0,0,0,-4.7351,-4.7362,-4.741,-4.7384,-4.7389,-4.7491,-4.7367,-4.7354,-4.7369,-4.7355,-4.7336,-4.7328,-4.7281,-4.7362,-4.7372,-4.7445,-4.7292,-4.7568,-4.7578,-4.7588,-4.7731,-4.7756,-4.7777,0,0,0,0,0,-4.7348,-4.7453,-4.7413,-4.7422,-4.7448,-4.7495,-4.7498,-4.7441,-4.7376,-4.7424,-4.7397,-4.7329,-4.7433,-4.7371,-4.7381,-4.7457,-4.7563,-4.7575,-4.7587,-4.7721,-4.7751,-4.7776,0,0,0,0,0,0,-4.7489,-4.7449,-4.7403,-4.7503,-4.7504,-4.7472,-4.7531,-4.7475,-4.7494,-4.748,-4.7409,-4.7406,-4.7496,-4.7484,-4.7416,-4.758,-4.7486,-4.7501,-4.7584,-4.7612,-4.7635,-4.7635,-4.7296,0,0,0,0,0,-4.7532,-4.7573,-4.7536,-4.7627,-4.763,-4.7581,-4.76,-4.7556,-4.7554,-4.7553,-4.7532,-4.7533,-4.7565,-4.7588,-4.7616,-4.773,-4.7724,-4.7787,-4.781,-4.7829,-4.7842,-4.7902,-4.793,-4.7634,-4.7634,-4.7634,0,0,-4.762,-4.7603,-4.7634,-4.7655,-4.765,-4.7696,-4.7582,-4.7634,-4.7667,-4.7561,-4.7633,-4.7619,-4.7615,-4.7712,-4.7753,-4.7705,-4.7923,-4.7844,-4.786,-4.7863,-4.7918,-4.7946,-4.7971,-4.7642,-4.7641,-4.764,0,0,-4.7804,-4.7795,-4.7871,-4.7869,-4.7863,-4.783,-4.7849,-4.7827,-4.7813,-4.7885,-4.7806,-4.7845,-4.7903,-4.7903,-4.7911,-4.8099,-4.8037,-4.811,-4.8227,-4.8287,-4.831,-4.833,-4.8397,-4.8422,-4.8124,-4.8124,-4.8124,0,-4.7914,-4.7978,-4.7917,-4.7975,-4.7987,-4.7894,-4.797,-4.7972,-4.7976,-4.7987,-4.7933,-4.8004,-4.7995,-4.8091,-4.8137,-4.8147,-4.8166,-4.8111,-4.8312,-4.8332,-4.835,-4.8412,-4.8438,-4.8133,-4.8132,-4.8131,-4.813,0,-4.8114,-4.8161,-4.8222,-4.8229,-4.8248,-4.8316,-4.8265,-4.8292,-4.8248,-4.8221,-4.8296,-4.8283,-4.8306,-4.8326,-4.8283,-4.8417,-4.8387,-4.8324,-4.8227,-4.8388,-4.8445,-4.8469,-4.8145,-4.8142,-4.814,-4.8137,0,0,-4.8384,-4.8357,-4.8381,-4.8383,-4.8372,-4.8406,-4.847,-4.8494,-4.8518,-4.8525,-4.8577,-4.8629,-4.8571,-4.858,-4.8537,-4.859,-4.8739,-4.8519,-4.8518,-4.8561,-4.8886,-4.8933,-4.8962,-4.8699,-4.8703,-4.8707,-4.8886,0,-4.8561,-4.8667,-4.8614,-4.8727,-4.877,-4.8683,-4.8739,-4.8739,-4.8716,-4.8749,-4.8724,-4.8762,-4.8682,-4.8687,-4.8736,-4.8711,-4.8804,-4.8697,-4.8747,-4.8749,-4.8749,-4.8992,-4.9042,-4.9212,-4.8909,-4.8913,-4.8915,0,-4.878,-4.8797,-4.8914,-4.8896,-4.8912,-4.8963,-4.898,-4.9013,-4.9012,-4.8992,-4.9004,-4.8949,-4.9011,-4.8917,-4.9001,-4.893,-4.8948,-4.8939,-4.8945,-4.8946,-4.8841,-4.9,-4.9265,-4.929,-4.895,-4.8948,-4.8945,0,-4.8965,-4.9017,-4.9094,-4.9099,-4.9079,-4.9117,-4.9111,-4.9104,-4.9122,-4.9139,-4.915,-4.9174,-4.9186,-4.9206,-4.916,-4.9096,-4.9252,-4.9153,-4.9237,-4.9238,-4.9272,-4.927,-4.9543,-4.9286,-4.9285,-4.9285,-4.9284,0,-4.9167,-4.9242,-4.9176,-4.9224,-4.9306,-4.9246,-4.9329,-4.9314,-4.9309,-4.9352,-4.928,-4.9322,-4.9259,-4.9295,-4.926,-4.9336,-4.9342,-4.9328,-4.9318,-4.9334,-4.9336,-4.9343,-4.933,-4.9292,-4.929,-4.9289,-4.9288,0,-4.9386,-4.9345,-4.9423,-4.9399,-4.9395,-4.9457,-4.9437,-4.948,-4.9453,-4.9509,-4.9519,-4.9478,-4.9517,-4.9473,-4.9509,-4.9485,-4.9588,-4.9561,-4.9589,-4.9581,-4.9667,-4.9659,-4.9953,-4.9988,-4.9709,-4.9712,-4.9714,0,-4.9517,-4.9573,-4.9555,-4.9579,-4.9578,-4.9617,-4.9635,-4.958,-4.9602,-4.9605,-4.9649,-4.9682,-4.9706,-4.9773,-4.9747,-4.9774,-4.9746,-4.9848,-4.975,-4.9765,-4.9747,-4.9744,-4.975,-4.9867,-4.987,-4.9873,-4.9875,0,-4.9754,-4.9731,-4.976,-4.9783,-4.9807,-4.9822,-4.9832,-4.9856,-4.9798,-4.9827,-4.9867,-4.9885,-4.9923,-4.9957,-4.9978,-4.9972,-4.9915,-4.9907,-4.9927,-4.9944,-4.9958,-4.9951,-4.9642,-4.99,-4.9897,-4.9895,-4.9894,-4.9893,-4.9932,-4.9978,-4.9973,-5.0009,-5.001,-5.0022,-5.0062,-5.0041,-5.0073,-5.0098,-5.0064,-5.0114,-5.0112,-5.0134,-5.0135,-5.0174,-5.013,-5.0161,-5.0168,-5.0176,-5.0189,-4.9953,-5.0177,-5.0176,-5.0176,-5.0175,-5.0175,0,-5.0164,-5.0158,-5.0191,-5.0207,-5.0236,-5.018,-5.0189,-5.0216,-5.026,-5.0264,-5.0289,-5.0336,-5.0369,-5.0347,-5.0375,-5.0411,-5.0385,-5.042,-5.0416,-5.0416,-5.0226,-5.0205,-5.044,-5.044,-5.044,-5.044,-5.044,-5.044,-5.0289,-5.0364,-5.0341,-5.0417,-5.041,-5.0458,-5.0467,-5.0478,-5.0481,-5.0536,-5.0564,-5.0549,-5.0542,-5.057,-5.0599,-5.0591,-5.0605,-5.065,-5.0633,-5.0455,-5.0429,-5.0404,-5.0384,-5.0653,-5.0654,-5.0819,-5.0821,-5.0822]},{"header":{"parameterUnit":"m.s-1","parameterCategory":1,"la1":30.2991,"la2":30.254,"lo1":-89.0895,"lo2":-89.0444,"dy":0.0017,"dx":0.0017,"nx":28,"ny":28,"refTime":"2025-08-08T09:00:00:Z","depth":0,"parameterNumber":3,"parameterNumberName":"V-component_of_WINDS"},"data":[0,0,0,0,0,0,0,0,0,0,0,0,0,0,0,0,0,0,0,0,0,0,0,0,0,0,0,0,0,0,0,0,0,0,0,0,0,0,0,0,0,0,0,0,0,0,0,0,0,0,0,0,0,0,0,0,0,0,-0.1134,-0.1135,0,-0.123,-0.1232,-0.1233,-0.1252,-0.1251,-0.125,-0.125,-0.1351,-0.1354,-0.1358,0,0,0,0,0,0,0,0,0,0,0,0,0,-0.0968,-0.0971,-0.1134,-0.1135,-0.1137,-0.123,-0.1232,-0.1233,-0.1252,-0.1251,-0.125,-0.1249,-0.135,-0.1354,-0.1358,0,0,0,0,0,0,0,0,0,0,0,0,0,-0.105,-0.0972,-0.1134,-0.1157,-0.116,-0.123,-0.1232,-0.1233,-0.1252,-0.1251,-0.125,-0.1249,-0.1349,-0.1354,-0.1359,-0.1413,0,0,-0.1374,-0.1376,0,0,0,0,0,0,0,0,-0.1045,-0.1056,-0.1153,-0.1156,-0.1159,-0.1228,-0.121,-0.1293,-0.1253,-0.1218,-0.125,-0.1248,-0.1311,-0.1319,-0.134,-0.1417,-0.1422,-0.1375,-0.1378,-0.138,-0.1381,0,0,0,0,0,0,0,-0.104,-0.1052,-0.1172,-0.1154,-0.1158,-0.1163,-0.1174,-0.1226,-0.127,-0.1221,-0.1222,-0.1233,-0.1313,-0.1335,-0.1342,-0.1423,-0.1375,-0.1379,-0.1382,-0.1384,-0.1548,-0.1549,0,0,0,0,0,0,-0.103,-0.1047,-0.1169,-0.1175,-0.1098,-0.1167,-0.1179,-0.1207,-0.1269,-0.1277,-0.1234,-0.1234,-0.1327,-0.1337,-0.1346,-0.1413,-0.138,-0.1385,-0.1388,-0.1546,-0.1548,-0.1549,0,0,0,0,0,0,-0.1026,-0.104,-0.1165,-0.1112,-0.1128,-0.1171,-0.1203,-0.121,-0.1232,-0.1279,-0.1287,-0.1248,-0.1326,-0.1339,-0.1395,-0.1416,-0.1387,-0.1392,-0.1545,-0.1547,-0.1549,-0.1546,0,0,0,0,0,0,-0.1021,-0.1039,-0.106,-0.1112,-0.1131,-0.1213,-0.1204,-0.1212,-0.124,-0.1241,-0.1295,-0.1303,-0.1326,-0.1388,-0.14,-0.1423,-0.1396,-0.1543,-0.1546,-0.1548,-0.1545,-0.1548,-0.1551,0,0,0,0,0,-0.1015,-0.1056,-0.1061,-0.1075,-0.1158,-0.1214,-0.1225,-0.125,-0.1242,-0.1263,-0.1293,-0.1301,-0.1412,-0.1393,-0.1408,-0.1432,-0.1542,-0.1545,-0.1548,-0.1544,-0.1547,-0.1551,0,0,0,0,0,0,-0.1007,-0.1064,-0.1069,-0.1128,-0.1166,-0.1217,-0.1245,-0.1254,-0.1296,-0.1294,-0.1325,-0.1337,-0.1391,-0.1417,-0.1396,-0.1487,-0.1476,-0.1482,-0.1468,-0.1472,-0.1475,-0.1468,-0.14,0,0,0,0,0,-0.1012,-0.1052,-0.11,-0.1147,-0.1166,-0.1202,-0.1228,-0.1243,-0.1284,-0.1301,-0.1335,-0.1375,-0.1418,-0.1446,-0.1489,-0.1548,-0.156,-0.1572,-0.1575,-0.1577,-0.1582,-0.1614,-0.162,-0.1559,-0.1559,-0.1559,0,0,-0.1023,-0.1059,-0.1083,-0.1147,-0.1178,-0.1219,-0.1216,-0.126,-0.1291,-0.1308,-0.1363,-0.1389,-0.1435,-0.1492,-0.152,-0.1516,-0.1601,-0.158,-0.1582,-0.1586,-0.1618,-0.1623,-0.1628,-0.1561,-0.1561,-0.156,0,0,-0.1065,-0.1096,-0.1138,-0.1169,-0.1215,-0.1238,-0.1248,-0.1298,-0.1315,-0.137,-0.1383,-0.142,-0.1495,-0.1527,-0.1553,-0.1603,-0.1612,-0.1616,-0.1633,-0.1663,-0.1668,-0.1672,-0.169,-0.1696,-0.1621,-0.1621,-0.1621,0,-0.1073,-0.1136,-0.1159,-0.1203,-0.123,-0.1245,-0.1288,-0.1317,-0.1375,-0.1394,-0.1388,-0.148,-0.1513,-0.1577,-0.1589,-0.161,-0.1622,-0.1611,-0.1665,-0.167,-0.1674,-0.1692,-0.1698,-0.1621,-0.1621,-0.1621,-0.1621,0,-0.1143,-0.1186,-0.1215,-0.1269,-0.13,-0.1343,-0.1373,-0.1401,-0.1413,-0.1437,-0.1492,-0.1531,-0.1581,-0.1597,-0.1611,-0.1663,-0.1659,-0.1659,-0.165,-0.168,-0.1697,-0.1704,-0.1622,-0.1622,-0.1621,-0.1621,0,0,-0.1186,-0.125,-0.126,-0.1284,-0.1335,-0.1369,-0.1412,-0.1459,-0.1482,-0.1521,-0.1558,-0.1619,-0.1619,-0.1648,-0.1665,-0.1692,-0.1728,-0.1688,-0.1689,-0.1694,-0.1788,-0.1788,-0.1796,-0.1733,-0.1735,-0.1736,-0.1784,0,-0.1234,-0.131,-0.1332,-0.1397,-0.1436,-0.1449,-0.1486,-0.1522,-0.1544,-0.1581,-0.1606,-0.1649,-0.1645,-0.1662,-0.1689,-0.1718,-0.1747,-0.1715,-0.1769,-0.177,-0.1758,-0.1805,-0.1806,-0.185,-0.1791,-0.1792,-0.1793,0,-0.1301,-0.1339,-0.1407,-0.1451,-0.1468,-0.1502,-0.1546,-0.1581,-0.162,-0.1635,-0.1666,-0.1679,-0.1725,-0.1711,-0.1773,-0.175,-0.1773,-0.179,-0.1793,-0.18,-0.1784,-0.1814,-0.1865,-0.1871,-0.1803,-0.1803,-0.1802,0,-0.1324,-0.1393,-0.1443,-0.1463,-0.1515,-0.1538,-0.1561,-0.1599,-0.1625,-0.1664,-0.1682,-0.1725,-0.175,-0.1783,-0.1808,-0.1796,-0.1868,-0.1857,-0.1881,-0.1881,-0.1898,-0.1897,-0.1954,-0.1911,-0.191,-0.191,-0.191,0,-0.1377,-0.1418,-0.1454,-0.1484,-0.1531,-0.1554,-0.16,-0.1623,-0.1656,-0.1692,-0.1706,-0.1739,-0.1769,-0.1806,-0.1825,-0.1873,-0.1884,-0.1897,-0.1902,-0.1897,-0.1895,-0.1913,-0.1911,-0.1912,-0.1912,-0.1911,-0.1911,0,-0.1412,-0.1438,-0.1492,-0.1536,-0.1548,-0.158,-0.1618,-0.1648,-0.167,-0.1714,-0.1726,-0.1761,-0.1804,-0.1832,-0.1888,-0.1901,-0.1954,-0.1958,-0.1941,-0.1943,-0.1967,-0.1964,-0.2039,-0.2049,-0.1998,-0.1998,-0.1999,0,-0.1444,-0.1476,-0.1523,-0.1546,-0.1569,-0.1608,-0.1634,-0.1658,-0.1685,-0.1731,-0.1755,-0.1799,-0.1836,-0.1906,-0.1936,-0.1979,-0.1984,-0.2007,-0.1991,-0.1983,-0.1985,-0.1983,-0.1986,-0.201,-0.201,-0.2011,-0.2011,0,-0.1499,-0.1509,-0.1546,-0.1587,-0.1618,-0.1652,-0.1685,-0.1704,-0.1734,-0.1763,-0.1807,-0.1836,-0.1891,-0.1935,-0.198,-0.2004,-0.2013,-0.2015,-0.2023,-0.2019,-0.2008,-0.2014,-0.1949,-0.2014,-0.2014,-0.2014,-0.2013,-0.2013,-0.1534,-0.1562,-0.1599,-0.1639,-0.1666,-0.1697,-0.1727,-0.1751,-0.1788,-0.1835,-0.1846,-0.1892,-0.1929,-0.199,-0.2014,-0.2051,-0.2048,-0.2059,-0.2063,-0.2065,-0.2066,-0.2,-0.2059,-0.2059,-0.2059,-0.2059,-0.2059,0,-0.1589,-0.1613,-0.1649,-0.1695,-0.1727,-0.1729,-0.1766,-0.1793,-0.1833,-0.1866,-0.1901,-0.1951,-0.1993,-0.2025,-0.2068,-0.2091,-0.2096,-0.2101,-0.2101,-0.2106,-0.2066,-0.2055,-0.2096,-0.2096,-0.2096,-0.2096,-0.2096,-0.2096,-0.1622,-0.167,-0.1684,-0.1745,-0.1768,-0.1812,-0.1833,-0.1861,-0.1887,-0.1942,-0.1976,-0.1996,-0.2029,-0.2074,-0.2112,-0.212,-0.2136,-0.2141,-0.215,-0.2113,-0.2109,-0.2105,-0.2095,-0.2144,-0.2144,-0.2187,-0.2187,-0.2188]}]]